When you browse on this site, cookies collect data to enhance your experience and personalize the content and advertising you see.
Visit our Privacy Policy to learn more. By continuing to use the site, you agree to this use of cookies and data.
  • En España
  • Lista de países
  • Para 7 días
  • Temperatura del agua
  • El tiempo en el mapa
  • Informadores
  • user-avatar
    Iniciar sesión

    Tiempo cada hora Warwick

    Hoy, 2 Junio, Martes

    Tiempo Temperatura Precipitaciones Viento Presión Humedad
    00:00 +10°C° 0 mm 2 mps 762 mmHg 86%
    01:00 +10°C° 0 mm 2 mps 762 mmHg 87%
    02:00 +9°C° 0 mm 2 mps 762 mmHg 88%
    03:00 +9°C° 0 mm 2 mps 762 mmHg 89%
    04:00 +9°C° 0 mm 2 mps 762 mmHg 87%
    05:00 +10°C° 0 mm 2 mps 762 mmHg 85%
    06:00 +12°C° 0 mm 2 mps 761 mmHg 83%
    07:00 +14°C° 0 mm 2 mps 761 mmHg 76%
    08:00 +15°C° 0 mm 2 mps 761 mmHg 69%
    09:00 +17°C° 0 mm 2 mps 761 mmHg 62%
    10:00 +18°C° 0 mm 2 mps 761 mmHg 59%
    11:00 +19°C° 0 mm 2 mps 760 mmHg 56%
    12:00 +20°C° 0 mm 2 mps 760 mmHg 53%
    13:00 +20°C° 0 mm 2 mps 760 mmHg 52%
    14:00 +21°C° 0 mm 2 mps 759 mmHg 52%
    15:00 +21°C° 0 mm 2 mps 758 mmHg 51%
    16:00 +21°C° 0 mm 2 mps 758 mmHg 56%
    17:00 +22°C° 0 mm 1 mps 757 mmHg 61%
    18:00 +21°C° 0 mm 1 mps 757 mmHg 66%
    19:00 +20°C° 0 mm 1 mps 757 mmHg 68%
    20:00 +18°C° 0 mm 1 mps 756 mmHg 71%
    21:00 +15°C° 0 mm 1 mps 756 mmHg 74%
    22:00 +15°C° 0 mm 2 mps 756 mmHg 74%
    23:00 +14°C° 0 mm 2 mps 755 mmHg 75%

    Mañana, 3 Junio, Miércoles

    Tiempo Temperatura Precipitaciones Viento Presión Humedad
    00:00 +14°C° 0 mm 2 mps 755 mmHg 76%
    01:00 +14°C° 0 mm 2 mps 754 mmHg 74%
    02:00 +13°C° 0 mm 2 mps 754 mmHg 73%
    03:00 +13°C° 0 mm 2 mps 753 mmHg 72%
    04:00 +13°C° 0.1 mm 2 mps 753 mmHg 76%
    05:00 +13°C° 0.1 mm 3 mps 752 mmHg 79%
    06:00 +13°C° 0.1 mm 3 mps 752 mmHg 83%
    07:00 +13°C° 0.3 mm 3 mps 752 mmHg 86%
    08:00 +13°C° 0.3 mm 3 mps 752 mmHg 88%
    09:00 +13°C° 0.3 mm 3 mps 752 mmHg 90%
    10:00 +13°C° 0.1 mm 3 mps 752 mmHg 89%
    11:00 +12°C° 0.1 mm 4 mps 752 mmHg 89%
    12:00 +12°C° 0.1 mm 5 mps 752 mmHg 89%
    13:00 +12°C° 0 mm 5 mps 752 mmHg 87%
    14:00 +12°C° 0 mm 5 mps 751 mmHg 85%
    15:00 +12°C° 0 mm 5 mps 751 mmHg 83%
    16:00 +12°C° 0 mm 5 mps 751 mmHg 83%
    17:00 +12°C° 0 mm 4 mps 751 mmHg 83%
    18:00 +12°C° 0 mm 4 mps 751 mmHg 84%
    19:00 +11°C° 0 mm 3 mps 751 mmHg 86%
    20:00 +11°C° 0 mm 3 mps 752 mmHg 88%
    21:00 +10°C° 0 mm 3 mps 752 mmHg 90%
    22:00 +10°C° 0 mm 3 mps 752 mmHg 89%
    23:00 +10°C° 0 mm 3 mps 752 mmHg 89%

    Pasado mañana, 4 Junio, Jueves

    Tiempo Temperatura Precipitaciones Viento Presión Humedad
    00:00 +10°C° 0 mm 3 mps 751 mmHg 88%
    01:00 +10°C° 0 mm 4 mps 751 mmHg 87%
    02:00 +10°C° 0 mm 4 mps 751 mmHg 86%
    03:00 +9°C° 0 mm 5 mps 750 mmHg 86%
    04:00 +9°C° 0 mm 5 mps 750 mmHg 84%
    05:00 +9°C° 0 mm 5 mps 750 mmHg 82%
    06:00 +8°C° 0 mm 5 mps 750 mmHg 81%
    07:00 +9°C° 0 mm 5 mps 750 mmHg 75%
    08:00 +10°C° 0 mm 5 mps 749 mmHg 69%
    09:00 +12°C° 0 mm 5 mps 749 mmHg 63%
    10:00 +12°C° 0 mm 5 mps 749 mmHg 64%
    11:00 +12°C° 0 mm 5 mps 749 mmHg 65%
    12:00 +12°C° 0 mm 5 mps 748 mmHg 65%
    13:00 +12°C° 0.1 mm 4 mps 748 mmHg 64%
    14:00 +13°C° 0.1 mm 4 mps 748 mmHg 62%
    15:00 +14°C° 0.1 mm 4 mps 747 mmHg 60%
    16:00 +14°C° 0.4 mm 4 mps 747 mmHg 66%
    17:00 +13°C° 0.4 mm 4 mps 747 mmHg 72%
    18:00 +13°C° 0.4 mm 3 mps 747 mmHg 78%
    19:00 +12°C° 0.4 mm 3 mps 747 mmHg 83%
    20:00 +10°C° 0.4 mm 3 mps 747 mmHg 87%
    21:00 +9°C° 0.4 mm 3 mps 747 mmHg 91%
    22:00 +9°C° 0.3 mm 3 mps 747 mmHg 91%
    23:00 +8°C° 0.3 mm 2 mps 747 mmHg 90%

    5 Junio, Viernes

    Tiempo Temperatura Precipitaciones Viento Presión Humedad
    00:00 +8°C° 0.3 mm 1 mps 747 mmHg 89%
    01:00 +6°C° 0 mm 2 mps 747 mmHg 89%
    02:00 +6°C° 0 mm 2 mps 747 mmHg 88%
    03:00 +5°C° 0 mm 2 mps 747 mmHg 87%
    04:00 +5°C° 0 mm 3 mps 747 mmHg 86%
    05:00 +7°C° 0 mm 3 mps 747 mmHg 86%
    06:00 +7°C° 0 mm 3 mps 747 mmHg 85%
    07:00 +9°C° 0 mm 3 mps 747 mmHg 78%
    08:00 +11°C° 0 mm 4 mps 747 mmHg 71%
    09:00 +12°C° 0 mm 4 mps 747 mmHg 64%
    10:00 +13°C° 0.1 mm 5 mps 747 mmHg 66%
    11:00 +13°C° 0.1 mm 5 mps 747 mmHg 69%
    12:00 +14°C° 0.1 mm 5 mps 747 mmHg 71%
    13:00 +14°C° 0.1 mm 5 mps 746 mmHg 69%
    14:00 +14°C° 0.1 mm 5 mps 746 mmHg 67%
    15:00 +14°C° 0.1 mm 5 mps 746 mmHg 64%
    16:00 +13°C° 0 mm 5 mps 745 mmHg 66%
    17:00 +13°C° 0 mm 5 mps 745 mmHg 68%
    18:00 +13°C° 0 mm 4 mps 745 mmHg 69%
    19:00 +12°C° 0.1 mm 4 mps 745 mmHg 76%
    20:00 +11°C° 0.1 mm 3 mps 745 mmHg 83%
    21:00 +10°C° 0.1 mm 3 mps 745 mmHg 89%
    22:00 +10°C° 0.1 mm 3 mps 745 mmHg 91%
    23:00 +10°C° 0.1 mm 3 mps 745 mmHg 92%

    6 Junio, Sábado

    Tiempo Temperatura Precipitaciones Viento Presión Humedad
    00:00 +10°C° 0.1 mm 3 mps 745 mmHg 94%
    01:00 +9°C° 0 mm 3 mps 745 mmHg 94%
    02:00 +8°C° 0 mm 4 mps 745 mmHg 94%
    03:00 +8°C° 0 mm 4 mps 745 mmHg 94%
    04:00 +8°C° 0 mm 4 mps 745 mmHg 93%
    05:00 +8°C° 0 mm 5 mps 746 mmHg 91%
    06:00 +8°C° 0 mm 5 mps 746 mmHg 90%
    07:00 +9°C° 0.1 mm 6 mps 746 mmHg 84%
    08:00 +10°C° 0.1 mm 6 mps 746 mmHg 78%
    09:00 +11°C° 0.1 mm 7 mps 747 mmHg 72%
    10:00 +12°C° 0.1 mm 7 mps 747 mmHg 66%
    11:00 +12°C° 0.1 mm 7 mps 747 mmHg 60%
    12:00 +12°C° 0.1 mm 7 mps 747 mmHg 54%
    13:00 +12°C° 0.1 mm 7 mps 747 mmHg 55%
    14:00 +12°C° 0.1 mm 7 mps 747 mmHg 55%
    15:00 +12°C° 0.1 mm 7 mps 747 mmHg 56%
    16:00 +12°C° 0.1 mm 7 mps 747 mmHg 60%
    17:00 +11°C° 0.1 mm 6 mps 747 mmHg 63%
    18:00 +10°C° 0.1 mm 6 mps 748 mmHg 66%
    19:00 +9°C° 0 mm 6 mps 748 mmHg 68%
    20:00 +7°C° 0 mm 5 mps 748 mmHg 70%
    21:00 +6°C° 0 mm 4 mps 749 mmHg 72%
    22:00 +5°C° 0 mm 5 mps 749 mmHg 73%
    23:00 +5°C° 0 mm 5 mps 749 mmHg 74%

    7 Junio, Domingo

    Tiempo Temperatura Precipitaciones Viento Presión Humedad
    00:00 +3°C° 0 mm 5 mps 749 mmHg 75%
    01:00 +3°C° 0 mm 5 mps 749 mmHg 76%
    02:00 +3°C° 0 mm 5 mps 749 mmHg 77%
    03:00 +3°C° 0 mm 5 mps 749 mmHg 78%
    04:00 +4°C° 0 mm 6 mps 749 mmHg 76%
    05:00 +4°C° 0 mm 6 mps 749 mmHg 74%
    06:00 +5°C° 0 mm 7 mps 749 mmHg 72%
    07:00 +6°C° 0.1 mm 7 mps 750 mmHg 70%
    08:00 +8°C° 0.1 mm 7 mps 750 mmHg 67%
    09:00 +9°C° 0.1 mm 7 mps 750 mmHg 64%
    10:00 +10°C° 0.2 mm 7 mps 751 mmHg 64%
    11:00 +10°C° 0.2 mm 7 mps 751 mmHg 63%
    12:00 +10°C° 0.2 mm 7 mps 751 mmHg 62%
    13:00 +11°C° 0.2 mm 7 mps 751 mmHg 61%
    14:00 +11°C° 0.2 mm 7 mps 752 mmHg 61%
    15:00 +11°C° 0.2 mm 7 mps 752 mmHg 60%
    16:00 +11°C° 0.1 mm 6 mps 752 mmHg 61%
    17:00 +11°C° 0.1 mm 6 mps 752 mmHg 62%
    18:00 +12°C° 0.1 mm 5 mps 752 mmHg 63%
    19:00 +10°C° 0 mm 4 mps 753 mmHg 69%
    20:00 +7°C° 0 mm 4 mps 753 mmHg 74%
    21:00 +6°C° 0 mm 4 mps 753 mmHg 80%
    22:00 +5°C° 0 mm 3 mps 753 mmHg 82%
    23:00 +5°C° 0 mm 3 mps 753 mmHg 85%
    Mostrar más